Location: Dammartin
(48.9032°N, 1.6195°E)
Time: 15:24:39
(UTC+00:00)

Meteor 1-27 - Pass Details

Date: 03 February 2023
Orbit: 836 x 893 km, 81.3° (Epoch: 30 March)

Event Time Altitude Azimuth Distance (km) Brightness Sun altitude
Rises 18:54:19 0° 346° (NNW) 3,502 7.6 -20.0°
Reaches altitude 10° 18:56:48 10° 344° (NNW) 2,552 6.8 -20.4°
Maximum altitude 19:02:34 71° 262° (W) 924 4.5 -21.3°
Drops below altitude 10° 19:08:13 10° 180° (S) 2,497 6.6 -22.2°
Sets 19:10:37 0° 178° (S) 3,421 7.3 -22.6°
